Terminal Aerodrome Forecast
Issued by NWS Upton, NY

Home | Current Version | Previous Version | Text Only | Print | Product List | Glossary On
Versions: 1 2 3 4 5 6 7 8 9 10 11 12 13 14 15 16 17 18 19 20 21 22 23 24 25 26 27 28 29 30 31 32 33 34 35 36 37 38
000
FTUS41 KOKX 300347 AAB
TAFLGA
TAF AMD
KLGA 300347Z 3004/3024 36013G20KT P6SM FEW050
     FM300600 35010KT P6SM SKC
     FM301200 02007KT P6SM SCT200
     FM301900 19007KT P6SM FEW060 BKN150=

USA.gov is the U.S. government's official web portal to all federal, state and local government web resources and services.